Time,TemperatureF,DewpointF,PressureIn,WindDirection,WindDirectionDegrees,WindSpeedMPH,WindSpeedGustMPH,Humidity,HourlyPrecipIn,Conditions,Clouds,dailyrainin,SoftwareType,DateUTC
2013-04-04 00:03:00,69.0,69.0,30.05,ENE,76,4.0,7.0,100,0.48,,,-99.99,,2013-04-04 04:03:00,
2013-04-04 00:12:00,69.0,69.0,30.05,ENE,76,4.0,7.0,100,0.48,,,-99.99,,2013-04-04 04:12:00,
2013-04-04 00:23:00,69.0,69.0,30.03,SSE,159,4.0,6.0,100,0.48,,,-99.99,,2013-04-04 04:23:00,
2013-04-04 00:33:00,69.0,69.0,30.02,SSE,163,7.0,10.0,100,0.48,,,-99.99,,2013-04-04 04:33:00,
2013-04-04 00:43:00,69.0,69.0,30.02,SSE,163,7.0,10.0,100,0.48,,,-99.99,,2013-04-04 04:43:00,
2013-04-04 00:53:00,69.0,69.0,30.02,South,172,8.0,15.0,100,0.48,,,-99.99,,2013-04-04 04:53:00,
2013-04-04 01:02:00,69.0,69.0,30.01,SSE,163,10.0,17.0,100,0.48,,,-99.99,,2013-04-04 05:02:00,
2013-04-04 01:13:00,69.0,69.0,30.01,SSE,163,10.0,17.0,100,0.48,,,-99.99,,2013-04-04 05:13:00,
2013-04-04 01:23:00,69.0,69.0,30.02,SE,142,7.0,13.0,100,0.48,,,-99.99,,2013-04-04 05:23:00,
2013-04-04 01:32:00,69.0,69.0,30.01,SSE,159,7.0,11.0,100,0.48,,,-99.99,,2013-04-04 05:32:00,
2013-04-04 01:42:00,69.0,69.0,30.01,SSE,159,7.0,11.0,100,0.48,,,-99.99,,2013-04-04 05:42:00,
2013-04-04 01:52:00,69.0,69.0,29.99,SE,141,8.0,12.0,100,0.48,,,-99.99,,2013-04-04 05:52:00,
2013-04-04 02:02:00,68.0,68.0,29.99,South,169,8.0,13.0,100,0.48,,,-99.99,,2013-04-04 06:02:00,
2013-04-04 02:12:00,68.0,68.0,29.99,South,169,8.0,13.0,100,0.48,,,-99.99,,2013-04-04 06:12:00,
2013-04-04 02:22:00,68.0,68.0,29.98,SSE,149,9.0,13.0,100,0.48,,,-99.99,,2013-04-04 06:22:00,
2013-04-04 02:32:00,69.0,69.0,29.98,SSE,158,9.0,14.0,100,0.48,,,-99.99,,2013-04-04 06:32:00,
2013-04-04 02:42:00,69.0,69.0,29.98,SSE,158,9.0,14.0,100,0.48,,,-99.99,,2013-04-04 06:42:00,
2013-04-04 02:52:00,68.0,68.0,29.96,SSE,166,9.0,13.0,100,0.48,,,-99.99,,2013-04-04 06:52:00,
2013-04-04 03:02:00,69.0,69.0,29.96,SSE,160,9.0,15.0,100,0.48,,,-99.99,,2013-04-04 07:02:00,
2013-04-04 03:12:00,69.0,69.0,29.96,SSE,160,9.0,15.0,100,0.48,,,-99.99,,2013-04-04 07:12:00,
2013-04-04 03:22:00,69.0,69.0,29.95,SSE,165,12.0,21.0,100,0.48,,,-99.99,,2013-04-04 07:22:00,
2013-04-04 03:32:00,70.0,70.0,29.95,South,172,9.0,15.0,100,0.48,,,-99.99,,2013-04-04 07:32:00,
2013-04-04 03:43:00,70.0,70.0,29.95,South,172,9.0,15.0,100,0.48,,,-99.99,,2013-04-04 07:43:00,
2013-04-04 03:53:00,70.0,69.0,29.96,South,186,10.0,14.0,97,0.48,,,-99.99,,2013-04-04 07:53:00,
2013-04-04 04:02:00,70.0,69.0,29.94,South,172,11.0,18.0,98,0.48,,,-99.99,,2013-04-04 08:02:00,
2013-04-04 04:12:00,70.0,69.0,29.94,South,172,11.0,18.0,98,0.48,,,-99.99,,2013-04-04 08:12:00,
2013-04-04 04:23:00,70.0,69.0,29.95,SSE,152,7.0,10.0,98,0.48,,,-99.99,,2013-04-04 08:23:00,
2013-04-04 04:32:00,70.0,70.0,29.96,SSE,163,6.0,10.0,100,0.48,,,-99.99,,2013-04-04 08:32:00,
2013-04-04 04:43:00,70.0,70.0,29.96,SSE,163,6.0,10.0,100,0.48,,,-99.99,,2013-04-04 08:43:00,
2013-04-04 04:52:00,70.0,70.0,29.96,SSE,158,7.0,11.0,100,0.48,,,-99.99,,2013-04-04 08:52:00,
2013-04-04 05:03:00,70.0,70.0,29.96,SSW,204,6.0,10.0,100,0.48,,,-99.99,,2013-04-04 09:03:00,
2013-04-04 05:12:00,70.0,70.0,29.96,SSW,204,6.0,10.0,100,0.48,,,-99.99,,2013-04-04 09:12:00,
2013-04-04 05:22:00,70.0,70.0,29.97,SSW,200,6.0,9.0,100,0.48,,,-99.99,,2013-04-04 09:22:00,
2013-04-04 05:33:00,70.0,70.0,29.98,South,188,7.0,10.0,100,0.48,,,-99.99,,2013-04-04 09:33:00,
2013-04-04 05:43:00,70.0,70.0,29.98,South,188,7.0,10.0,100,0.48,,,-99.99,,2013-04-04 09:43:00,
2013-04-04 05:53:00,70.0,70.0,30.00,WSW,255,5.0,6.0,100,0.48,,,-99.99,,2013-04-04 09:53:00,
2013-04-04 06:04:00,70.0,70.0,30.01,SW,233,7.0,8.0,100,0.48,,,-99.99,,2013-04-04 10:04:00,
2013-04-04 06:12:00,70.0,70.0,30.01,SW,233,7.0,8.0,100,0.48,,,-99.99,,2013-04-04 10:12:00,
2013-04-04 06:24:00,69.0,69.0,30.00,SSW,195,8.0,12.0,100,0.48,,,-99.99,,2013-04-04 10:24:00,
2013-04-04 06:33:00,69.0,69.0,29.98,SSW,194,11.0,18.0,100,0.48,,,-99.99,,2013-04-04 10:33:00,
2013-04-04 06:42:00,69.0,69.0,29.98,SSW,194,11.0,18.0,100,0.48,,,-99.99,,2013-04-04 10:42:00,
2013-04-04 06:53:00,69.0,69.0,29.98,South,190,16.0,24.0,100,0.48,,,-99.99,,2013-04-04 10:53:00,
2013-04-04 07:02:00,68.0,68.0,29.98,SSW,195,14.0,21.0,100,0.48,,,-99.99,,2013-04-04 11:02:00,
2013-04-04 07:12:00,68.0,68.0,29.98,SSW,195,14.0,21.0,100,0.48,,,-99.99,,2013-04-04 11:12:00,
2013-04-04 07:22:00,69.0,69.0,29.98,SSW,193,11.0,18.0,100,0.48,,,-99.99,,2013-04-04 11:22:00,
2013-04-04 07:33:00,69.0,69.0,29.98,SSW,195,11.0,17.0,100,0.48,,,-99.99,,2013-04-04 11:33:00,
2013-04-04 07:42:00,69.0,69.0,29.98,SSW,195,11.0,17.0,100,0.48,,,-99.99,,2013-04-04 11:42:00,
2013-04-04 08:02:00,69.0,69.0,29.99,South,177,5.0,8.0,100,0.48,,,-99.99,,2013-04-04 12:02:00,
2013-04-04 08:12:00,69.0,69.0,29.99,South,177,5.0,8.0,100,0.48,,,-99.99,,2013-04-04 12:12:00,
2013-04-04 08:22:00,69.0,69.0,29.96,SSE,148,10.0,16.0,100,0.48,,,-99.99,,2013-04-04 12:22:00,
2013-04-04 08:32:00,69.0,69.0,29.94,SSE,166,14.0,22.0,100,0.48,,,-99.99,,2013-04-04 12:32:00,
2013-04-04 08:43:00,69.0,69.0,29.94,SSE,166,14.0,22.0,100,0.48,,,-99.99,,2013-04-04 12:43:00,
2013-04-04 08:52:00,70.0,70.0,29.95,South,190,13.0,21.0,100,0.48,,,-99.99,,2013-04-04 12:52:00,
2013-04-04 09:02:00,69.0,69.0,29.94,South,184,13.0,21.0,100,0.48,,,-99.99,,2013-04-04 13:02:00,
2013-04-04 09:12:00,69.0,69.0,29.94,South,184,13.0,21.0,100,0.48,,,-99.99,,2013-04-04 13:12:00,
2013-04-04 09:22:00,69.0,69.0,29.96,South,191,11.0,18.0,100,0.48,,,-99.99,,2013-04-04 13:22:00,
2013-04-04 09:32:00,70.0,70.0,29.95,South,190,10.0,17.0,100,0.48,,,-99.99,,2013-04-04 13:32:00,
2013-04-04 09:42:00,70.0,70.0,29.95,South,190,10.0,17.0,100,0.48,,,-99.99,,2013-04-04 13:42:00,
2013-04-04 09:52:00,70.0,70.0,29.97,South,191,13.0,19.0,100,0.48,,,-99.99,,2013-04-04 13:52:00,
2013-04-04 10:03:00,69.0,69.0,29.97,SSW,201,13.0,19.0,100,0.48,,,-99.99,,2013-04-04 14:03:00,
2013-04-04 10:13:00,69.0,69.0,29.97,SSW,201,13.0,19.0,100,0.48,,,-99.99,,2013-04-04 14:13:00,
2013-04-04 10:22:00,69.0,69.0,29.96,South,190,13.0,21.0,100,0.48,,,-99.99,,2013-04-04 14:22:00,
2013-04-04 10:33:00,69.0,69.0,29.96,SSW,197,11.0,19.0,100,0.48,,,-99.99,,2013-04-04 14:33:00,
2013-04-04 10:43:00,69.0,69.0,29.96,SSW,197,11.0,19.0,100,0.48,,,-99.99,,2013-04-04 14:43:00,
2013-04-04 10:52:00,69.0,69.0,29.97,SW,225,6.0,11.0,100,0.48,,,-99.99,,2013-04-04 14:52:00,
2013-04-04 11:02:00,69.0,69.0,29.98,SSW,211,8.0,11.0,100,0.48,,,-99.99,,2013-04-04 15:02:00,
2013-04-04 11:12:00,69.0,69.0,29.98,SSW,211,8.0,11.0,100,0.48,,,-99.99,,2013-04-04 15:12:00,
2013-04-04 11:23:00,69.0,69.0,29.98,SSW,193,10.0,14.0,100,0.48,,,-99.99,,2013-04-04 15:23:00,
2013-04-04 11:33:00,69.0,69.0,29.98,SW,217,9.0,12.0,100,0.48,,,-99.99,,2013-04-04 15:33:00,
2013-04-04 11:43:00,69.0,69.0,29.98,SW,217,9.0,12.0,100,0.48,,,-99.99,,2013-04-04 15:43:00,
2013-04-04 11:53:00,70.0,70.0,29.99,SSW,201,8.0,11.0,100,0.48,,,-99.99,,2013-04-04 15:53:00,
2013-04-04 12:03:00,69.0,69.0,30.00,SSW,211,6.0,8.0,100,0.48,,,-99.99,,2013-04-04 16:03:00,
2013-04-04 12:12:00,69.0,69.0,30.00,SSW,211,6.0,8.0,100,0.48,,,-99.99,,2013-04-04 16:12:00,
2013-04-04 12:24:00,70.0,70.0,30.01,SW,228,7.0,9.0,100,0.48,,,-99.99,,2013-04-04 16:24:00,
2013-04-04 12:33:00,70.0,70.0,30.01,WSW,242,7.0,10.0,100,0.48,,,-99.99,,2013-04-04 16:33:00,
2013-04-04 12:42:00,70.0,70.0,30.01,WSW,242,7.0,10.0,100,0.48,,,-99.99,,2013-04-04 16:42:00,
2013-04-04 12:54:00,70.0,70.0,30.02,SW,231,9.0,12.0,100,0.48,,,-99.99,,2013-04-04 16:54:00,
2013-04-04 13:03:00,70.0,70.0,30.02,SW,235,8.0,10.0,100,0.48,,,-99.99,,2013-04-04 17:03:00,
2013-04-04 13:13:00,70.0,70.0,30.02,SW,235,8.0,10.0,100,0.48,,,-99.99,,2013-04-04 17:13:00,
2013-04-04 13:23:00,70.0,70.0,30.03,WSW,239,10.0,13.0,100,0.48,,,-99.99,,2013-04-04 17:23:00,
2013-04-04 13:33:00,69.0,69.0,30.03,WSW,249,15.0,20.0,100,0.48,,,-99.99,,2013-04-04 17:33:00,
2013-04-04 13:42:00,69.0,69.0,30.03,WSW,249,15.0,20.0,100,0.48,,,-99.99,,2013-04-04 17:42:00,
2013-04-04 13:52:00,67.0,67.0,30.03,WSW,243,12.0,16.0,100,0.48,,,-99.99,,2013-04-04 17:52:00,
2013-04-04 14:02:00,66.0,66.0,30.02,SW,233,13.0,19.0,100,0.48,,,-99.99,,2013-04-04 18:02:00,
2013-04-04 14:12:00,66.0,66.0,30.02,SW,233,13.0,19.0,100,0.48,,,-99.99,,2013-04-04 18:12:00,
2013-04-04 14:23:00,67.0,67.0,30.02,WSW,255,9.0,15.0,100,0.48,,,-99.99,,2013-04-04 18:23:00,
2013-04-04 14:32:00,68.0,68.0,30.03,WSW,246,11.0,14.0,100,0.48,,,-99.99,,2013-04-04 18:32:00,
2013-04-04 14:43:00,68.0,68.0,30.03,WSW,246,11.0,14.0,100,0.48,,,-99.99,,2013-04-04 18:43:00,
2013-04-04 14:52:00,67.0,67.0,30.05,WSW,255,10.0,13.0,100,0.48,,,-99.99,,2013-04-04 18:52:00,
2013-04-04 15:02:00,67.0,67.0,30.04,WSW,253,8.0,10.0,100,0.48,,,-99.99,,2013-04-04 19:02:00,
2013-04-04 15:12:00,67.0,67.0,30.04,WSW,253,8.0,10.0,100,0.48,,,-99.99,,2013-04-04 19:12:00,
2013-04-04 15:22:00,66.0,66.0,30.02,WNW,300,9.0,13.0,100,0.48,,,-99.99,,2013-04-04 19:22:00,
2013-04-04 15:33:00,66.0,66.0,30.01,NW,304,8.0,11.0,100,0.48,,,-99.99,,2013-04-04 19:33:00,
2013-04-04 15:42:00,66.0,66.0,30.01,NW,304,8.0,11.0,100,0.48,,,-99.99,,2013-04-04 19:42:00,
2013-04-04 15:52:00,67.0,67.0,30.01,West,277,6.0,8.0,100,0.48,,,-99.99,,2013-04-04 19:52:00,
2013-04-04 16:03:00,66.0,66.0,30.00,WNW,293,4.0,7.0,100,0.48,,,-99.99,,2013-04-04 20:03:00,
2013-04-04 16:12:00,66.0,66.0,30.00,WNW,293,4.0,7.0,100,0.48,,,-99.99,,2013-04-04 20:12:00,
2013-04-04 16:23:00,67.0,67.0,29.99,SW,219,8.0,9.0,100,0.48,,,-99.99,,2013-04-04 20:23:00,
2013-04-04 16:32:00,66.0,66.0,29.96,South,170,10.0,15.0,100,0.48,,,-99.99,,2013-04-04 20:32:00,
2013-04-04 16:42:00,66.0,66.0,29.96,South,170,10.0,15.0,100,0.48,,,-99.99,,2013-04-04 20:42:00,
2013-04-04 16:53:00,66.0,66.0,29.93,SE,146,11.0,17.0,100,0.48,,,-99.99,,2013-04-04 20:53:00,
2013-04-04 17:02:00,66.0,66.0,29.92,SSE,150,10.0,16.0,100,0.48,,,-99.99,,2013-04-04 21:02:00,
2013-04-04 17:12:00,66.0,66.0,29.92,SSE,150,10.0,16.0,100,0.48,,,-99.99,,2013-04-04 21:12:00,
2013-04-04 17:22:00,66.0,66.0,29.90,SSE,148,11.0,18.0,100,0.48,,,-99.99,,2013-04-04 21:22:00,
2013-04-04 17:32:00,67.0,67.0,29.90,SSE,148,12.0,19.0,99,0.48,,,-99.99,,2013-04-04 21:32:00,
2013-04-04 17:43:00,67.0,67.0,29.90,SSE,148,12.0,19.0,99,0.48,,,-99.99,,2013-04-04 21:43:00,
2013-04-04 17:52:00,68.0,62.0,29.88,SE,146,11.0,22.0,82,0.48,,,-99.99,,2013-04-04 21:52:00,
2013-04-04 18:04:00,68.0,61.0,29.88,SE,141,12.0,20.0,77,0.48,,,-99.99,,2013-04-04 22:04:00,
2013-04-04 18:12:00,68.0,61.0,29.88,SE,141,12.0,20.0,77,0.48,,,-99.99,,2013-04-04 22:12:00,
2013-04-04 18:23:00,69.0,61.0,29.88,SE,141,10.0,15.0,77,0.48,,,-99.99,,2013-04-04 22:23:00,
2013-04-04 18:33:00,69.0,61.0,29.88,SE,129,9.0,14.0,76,0.48,,,-99.99,,2013-04-04 22:33:00,
2013-04-04 18:42:00,69.0,61.0,29.88,SE,129,9.0,14.0,76,0.48,,,-99.99,,2013-04-04 22:42:00,
2013-04-04 18:53:00,69.0,61.0,29.88,SE,135,8.0,14.0,76,0.48,,,-99.99,,2013-04-04 22:53:00,
2013-04-04 19:03:00,70.0,62.0,29.87,SE,141,8.0,13.0,76,0.48,,,-99.99,,2013-04-04 23:03:00,
2013-04-04 19:12:00,70.0,62.0,29.87,SE,141,8.0,13.0,76,0.48,,,-99.99,,2013-04-04 23:12:00,
2013-04-04 19:22:00,69.0,61.0,29.88,SE,139,8.0,12.0,75,0.48,,,-99.99,,2013-04-04 23:22:00,
2013-04-04 19:32:00,69.0,61.0,29.88,SSE,165,7.0,10.0,75,0.48,,,-99.99,,2013-04-04 23:32:00,
2013-04-04 19:42:00,69.0,61.0,29.88,SSE,165,7.0,10.0,75,0.48,,,-99.99,,2013-04-04 23:42:00,
2013-04-04 19:52:00,68.0,61.0,29.88,South,176,5.0,8.0,77,0.48,,,-99.99,,2013-04-04 23:52:00,
2013-04-04 20:02:00,68.0,60.0,29.87,SSE,165,6.0,9.0,76,0.48,,,-99.99,,2013-04-05 00:02:00,
2013-04-04 20:12:00,68.0,60.0,29.87,SSE,165,6.0,9.0,76,0.48,,,-99.99,,2013-04-05 00:12:00,
2013-04-04 20:22:00,67.0,60.0,29.88,SE,146,8.0,12.0,78,0.48,,,-99.99,,2013-04-05 00:22:00,
2013-04-04 20:32:00,67.0,60.0,29.90,SSE,150,7.0,11.0,78,0.48,,,-99.99,,2013-04-05 00:32:00,
2013-04-04 20:42:00,67.0,60.0,29.90,SSE,150,7.0,11.0,78,0.48,,,-99.99,,2013-04-05 00:42:00,
2013-04-04 20:52:00,67.0,60.0,29.91,South,169,6.0,10.0,78,0.48,,,-99.99,,2013-04-05 00:52:00,
2013-04-04 21:02:00,67.0,60.0,29.92,South,169,6.0,9.0,79,0.48,,,-99.99,,2013-04-05 01:02:00,
2013-04-04 21:12:00,67.0,60.0,29.92,South,169,6.0,9.0,79,0.48,,,-99.99,,2013-04-05 01:12:00,
2013-04-04 21:22:00,67.0,60.0,29.93,South,173,6.0,10.0,78,0.48,,,-99.99,,2013-04-05 01:22:00,
2013-04-04 21:32:00,67.0,60.0,29.91,SSE,162,7.0,11.0,77,0.48,,,-99.99,,2013-04-05 01:32:00,
2013-04-04 21:42:00,67.0,60.0,29.91,SSE,162,7.0,11.0,77,0.48,,,-99.99,,2013-04-05 01:42:00,
2013-04-04 21:52:00,67.0,60.0,29.91,SSE,167,7.0,9.0,78,0.48,,,-99.99,,2013-04-05 01:52:00,
2013-04-04 22:03:00,67.0,59.0,29.91,South,172,9.0,13.0,76,0.48,,,-99.99,,2013-04-05 02:03:00,
2013-04-04 22:12:00,67.0,59.0,29.91,South,172,9.0,13.0,76,0.48,,,-99.99,,2013-04-05 02:12:00,
2013-04-04 22:22:00,67.0,59.0,29.93,SSE,167,8.0,14.0,76,0.48,,,-99.99,,2013-04-05 02:22:00,
2013-04-04 22:32:00,67.0,60.0,29.94,SSE,165,7.0,12.0,77,0.48,,,-99.99,,2013-04-05 02:32:00,
2013-04-04 22:42:00,67.0,60.0,29.94,SSE,165,7.0,12.0,77,0.48,,,-99.99,,2013-04-05 02:42:00,
2013-04-04 22:52:00,67.0,61.0,29.95,WNW,300,2.0,5.0,80,0.48,,,-99.99,,2013-04-05 02:52:00,
2013-04-04 23:02:00,67.0,60.0,29.94,SSW,193,5.0,8.0,79,0.48,,,-99.99,,2013-04-05 03:02:00,
2013-04-04 23:12:00,67.0,60.0,29.94,SSW,193,5.0,8.0,79,0.48,,,-99.99,,2013-04-05 03:12:00,
2013-04-04 23:22:00,66.0,60.0,29.91,SSE,148,9.0,11.0,82,0.48,,,-99.99,,2013-04-05 03:22:00,
2013-04-04 23:32:00,66.0,60.0,29.91,SSE,148,9.0,11.0,82,0.48,,,-99.99,,2013-04-05 03:32:00,
2013-04-04 23:43:00,66.0,60.0,29.91,SSE,148,9.0,11.0,82,0.48,,,-99.99,,2013-04-05 03:43:00,
2013-04-04 23:53:00,66.0,63.0,29.94,SW,233,1.0,4.0,91,0.48,,,-99.99,,2013-04-05 03:53:00,